User: anonymous   Login
Location: Mount Wilson Observatory
(34.2257°N, 118.0571°W)
Time: 16:16:07
(UTC-07:00)
Language:

ATLAS 3B CENTAUR R/B - Orbit

View from above orbital plane
View from above orbital plane
View from above satellite
View from above satellite

Ground track
Ground track

The orbit data is extracted from the following two-line orbital elements,

1 28118U 03057B   15144.41198672  .00072928  00000-0  12892-2 0  9990
2 28118 028.1291 149.2303 3607788 162.4657 352.7404 08.27446977222811
Epoch (UTC): 24 May 2015 09:53:15
Eccentricity: 0.3607788
inclination: 28.1291°
perigee height: 222 km
apogee height: 7672 km
right ascension of ascending node: 149.2303°
argument of perigee: 162.4657°
revolutions per day: 8.27446977
mean anomaly at epoch: 352.7404°
orbit number at epoch: 22281

The dashed part of the orbit path shows where the satellite is in the earth's shadow,  

DLR